H1 CPF 2 NER 2023 5 23 9 143 01 glonass131 H2 1301901 9131 39155 2023 5 23 0 0 0 2023 5 26 23 45 0 900 1 1 0 0 0 1 H9 10 0 60087 0.00000 0 14197160.259 1788160.590 21149108.135 10 0 60087 900.00000 0 15894914.284 3636549.325 19642330.852 10 0 60087 1800.00000 0 17577425.173 5207860.451 17754970.210 10 0 60087 2700.00000 0 19181402.316 6484441.868 15523287.703 10 0 60087 3600.00000 0 20643190.081 7461386.365 12990283.767 10 0 60087 4500.00000 0 21901414.738 8146496.436 10204890.381 10 0 60087 5400.00000 0 22899564.437 8559715.405 7221041.939 10 0 60087 6300.00000 0 23588393.254 8732047.053 4096640.617 10 0 60087 7200.00000 0 23928046.538 8704007.790 892435.300 10 0 60087 8100.00000 0 23889815.546 8523675.789 -2329164.394 10 0 60087 9000.00000 0 23457444.406 8244419.359 -5505315.352 10 0 60087 9900.00000 0 22627930.981 7922401.397 -8573984.210 10 0 60087 10800.00000 0 21411784.788 7613967.144 -11475180.456 10 0 60087 11700.00000 0 19832728.419 7373028.219 -14152153.003 10 0 60087 12600.00000 0 17926853.187 7248556.583 -16552524.335 10 0 60087 13500.00000 0 15741263.506 7282297.618 -18629337.636 10 0 60087 14400.00000 0 13332266.938 7506802.166 -20341994.263 10 0 60087 15300.00000 0 10763186.675 7943863.365 -21657061.459 10 0 60087 16200.00000 0 8101889.590 8603426.414 -22548933.376 10 0 60087 17100.00000 0 5418135.120 9483018.547 -23000331.903 10 0 60087 18000.00000 0 2780857.698 10567723.719 -23002637.559 10 0 60087 18900.00000 0 255497.805 11830702.675 -22556044.632 10 0 60087 19800.00000 0 -2098505.972 13234235.483 -21669538.639 10 0 60087 20700.00000 0 -4229958.995 14731241.068 -20360698.041 10 0 60087 21600.00000 0 -6097793.919 16267208.016 -18655325.845 10 0 60087 22500.00000 0 -7672518.409 17782453.631 -16586920.146 10 0 60087 23400.00000 0 -8937169.260 19214614.602 -14195995.884 10 0 60087 24300.00000 0 -9887736.318 20501263.406 -11529272.832 10 0 60087 25200.00000 0 -10533042.188 21582539.820 -8638747.304 10 0 60087 26100.00000 0 -10894086.654 22403686.949 -5580667.050 10 0 60087 27000.00000 0 -11002887.082 22917385.883 -2414430.335 10 0 60087 27900.00000 0 -10900866.883 23085792.176 798568.755 10 0 60087 28800.00000 0 -10636862.428 22882190.345 3996126.147 10 0 60087 29700.00000 0 -10264834.096 22292198.949 7116422.019 10 0 60087 30600.00000 0 -9841378.670 21314477.738 10099201.120 10 0 60087 31500.00000 0 -9423147.724 19960909.048 12886917.538 10 0 60087 32400.00000 0 -9064279.801 18256247.191 15425823.448 10 0 60087 33300.00000 0 -8813952.872 16237251.163 17666982.830 10 0 60087 34200.00000 0 -8714158.160 13951336.744 19567192.705 10 0 60087 35100.00000 0 -8797786.953 11454803.181 21089796.338 10 0 60087 36000.00000 0 -9087109.085 8810706.412 22205374.752 10 0 60087 36900.00000 0 -9592705.844 6086464.762 22892304.895 10 0 60087 37800.00000 0 -10312901.766 3351293.539 23137174.893 10 0 60087 38700.00000 0 -11233719.713 673571.760 22935048.908 10 0 60087 39600.00000 0 -12329362.676 -1881752.841 22289576.288 10 0 60087 40500.00000 0 -13563204.477 -4255615.631 21212942.007 10 0 60087 41400.00000 0 -14889250.870 -6397044.080 19725657.681 10 0 60087 42300.00000 0 -16254013.061 -8265033.496 17856195.013 10 0 60087 43200.00000 0 -17598718.373 -9830011.887 15640466.168 10 0 60087 44100.00000 0 -18861768.100 -11074832.573 13121158.328 10 0 60087 45000.00000 0 -19981341.424 -11995251.936 10346932.656 10 0 60087 45900.00000 0 -20898037.005 -12599870.780 7371500.824 10 0 60087 46800.00000 0 -21557441.100 -12909539.957 4252595.177 10 0 60087 47700.00000 0 -21912512.834 -12956253.578 1050851.475 10 0 60087 48600.00000 0 -21925683.957 -12781575.158 -2171374.377 10 0 60087 49500.00000 0 -21570581.590 -12434662.491 -5351232.084 10 0 60087 50400.00000 0 -20833297.929 -11969974.909 -8426619.989 10 0 60087 51300.00000 0 -19713149.933 -11444760.941 -11337419.246 10 0 60087 52200.00000 0 -18222893.800 -10916434.575 -14026692.784 10 0 60087 53100.00000 0 -16388382.696 -10439953.641 -16441823.070 10 0 60087 54000.00000 0 -14247680.424 -10065314.145 -18535564.042 10 0 60087 54900.00000 0 -11849667.496 -9835269.498 -20266984.426 10 0 60087 55800.00000 0 -9252198.292 -9783373.736 -21602282.247 10 0 60087 56700.00000 0 -6519887.444 -9932433.623 -22515453.392 10 0 60087 57600.00000 0 -3721619.540 -10293436.428 -22988800.588 10 0 60087 58500.00000 0 -927888.009 -10864999.245 -23013272.861 10 0 60087 59400.00000 0 1791924.086 -11633362.841 -22588629.429 10 0 60087 60300.00000 0 4372206.597 -12572929.307 -21723425.963 10 0 60087 61200.00000 0 6753616.478 -13647319.240 -20434824.887 10 0 60087 62100.00000 0 8885299.777 -14810901.959 -18748235.225 10 0 60087 63000.00000 0 10726749.836 -16010732.160 -16696790.835 10 0 60087 63900.00000 0 12249226.112 -17188809.459 -14320679.180 10 0 60087 64800.00000 0 13436677.150 -18284563.969 -11666335.520 10 0 60087 65700.00000 0 14286132.516 -19237462.104 -8785519.902 10 0 60087 66600.00000 0 14807551.032 -19989622.330 -5734296.332 10 0 60087 67500.00000 0 15023135.480 -20488330.897 -2571935.079 10 0 60087 68400.00000 0 14966146.105 -20688352.491 640239.918 10 0 60087 69300.00000 0 14679265.784 -20553939.897 3840035.894 10 0 60087 70200.00000 0 14212587.873 -20060459.939 6965585.627 10 0 60087 71100.00000 0 13621312.716 -19195569.245 9956528.996 10 0 60087 72000.00000 0 12963250.134 -17959892.280 12755160.013 10 0 60087 72900.00000 0 12296232.451 -16367174.664 15307518.838 10 0 60087 73800.00000 0 11675545.540 -14443906.185 17564409.652 10 0 60087 74700.00000 0 11151484.043 -12228429.373 19482326.866 10 0 60087 75600.00000 0 10767131.362 -9769570.062 21024274.007 10 0 60087 76500.00000 0 10556455.550 -7124845.356 22160461.528 10 0 60087 77400.00000 0 10542799.301 -4358321.185 22868871.789 10 0 60087 78300.00000 0 10737826.301 -1538205.474 23135681.521 10 0 60087 79200.00000 0 11140967.860 1265726.511 22955534.207 10 0 60087 80100.00000 0 11739393.712 3984771.138 22331656.970 10 0 60087 81000.00000 0 12508509.789 6553893.380 21275818.814 10 0 60087 81900.00000 0 13412964.443 8914176.588 19808129.424 10 0 60087 82800.00000 0 14408123.792 11015025.132 17956680.258 10 0 60087 83700.00000 0 15441957.286 12816029.248 15757032.261 10 0 60087 84600.00000 0 16457257.208 14288414.506 13251557.354 10 0 60087 85500.00000 0 17394101.114 15416014.528 10488643.755 10 0 60088 0.00000 0 18192455.037 16195724.867 7521778.449 10 0 60088 900.00000 0 18794808.691 16637417.504 4408521.070 10 0 60088 1800.00000 0 19148729.869 16763316.730 1209392.096 10 0 60088 2700.00000 0 19209229.967 16606862.384 -2013308.749 10 0 60088 3600.00000 0 18940837.068 16211106.168 -5196726.425 10 0 60088 4500.00000 0 18319286.208 15626708.786 -8278693.320 10 0 60088 5400.00000 0 17332751.889 14909622.962 -11198964.449 10 0 60088 6300.00000 0 15982567.330 14118561.587 -13900418.731 10 0 60088 7200.00000 0 14283397.080 13312360.121 -16330200.364 10 0 60088 8100.00000 0 12262853.392 12547347.357 -18440775.535 10 0 60088 9000.00000 0 9960570.960 11874838.446 -20190881.627 10 0 60088 9900.00000 0 7426778.364 11338858.808 -21546348.528 10 0 60088 10800.00000 0 4720426.426 10974197.319 -22480774.775 10 0 60088 11700.00000 0 1906952.833 10804872.565 -22976044.678 10 0 60088 12600.00000 0 -944221.991 10843077.686 -23022676.308 10 0 60088 13500.00000 0 -3762361.591 11088648.193 -22619994.134 10 0 60088 14400.00000 0 -6478130.050 11529074.305 -21776123.984 10 0 60088 15300.00000 0 -9026244.087 12140055.642 -20507811.932 10 0 60088 16200.00000 0 -11347949.780 12886572.743 -18840072.330 10 0 60088 17100.00000 0 -13393221.144 13724427.853 -16805673.762 10 0 60088 18000.00000 0 -15122590.195 14602187.600 -14444474.848 10 0 60088 18900.00000 0 -16508534.320 15463443.501 -11802624.698 10 0 60088 19800.00000 0 -17536365.913 16249293.258 -8931645.229 10 0 60088 20700.00000 0 -18204590.474 16900937.108 -5887414.680 10 0 60088 21600.00000 0 -18524721.847 17362279.321 -2729073.152 10 0 60088 22500.00000 0 -18520565.946 17582425.483 482127.837 10 0 60088 23400.00000 0 -18227006.279 17517971.220 3684009.207 10 0 60088 24300.00000 0 -17688344.901 17134987.400 6814658.821 10 0 60088 25200.00000 0 -16956270.338 16410619.956 9813614.240 10 0 60088 26100.00000 0 -16087538.756 15334238.832 12623012.031 10 0 60088 27000.00000 0 -15141465.765 13908089.331 15188682.993 10 0 60088 27900.00000 0 -14177333.248 12147419.588 17461174.140 10 0 60088 28800.00000 0 -13251818.483 10080079.225 19396679.829 10 0 60088 29700.00000 0 -12416551.290 7745605.466 20957866.252 10 0 60088 30600.00000 0 -11715899.372 5193833.500 22114575.494 10 0 60088 31500.00000 0 -11185072.527 2483086.768 22844397.249 10 0 60088 32400.00000 0 -10848623.464 -321980.406 23133098.452 10 0 60088 33300.00000 0 -10719406.986 -3152801.605 22974903.132 10 0 60088 34200.00000 0 -10798040.986 -5939481.628 22372616.977 10 0 60088 35100.00000 0 -11072892.562 -8613440.509 21337593.348 10 0 60088 36000.00000 0 -11520591.439 -11110011.506 19889539.844 10 0 60088 36900.00000 0 -12107051.409 -13370887.424 18056166.999 10 0 60088 37800.00000 0 -12788959.593 -15346314.990 15872683.359 10 0 60088 38700.00000 0 -13515673.664 -16996946.382 13381143.908 10 0 60088 39600.00000 0 -14231449.673 -18295270.224 10629661.806 10 0 60088 40500.00000 0 -14877908.475 -19226560.972 7671496.281 10 0 60088 41400.00000 0 -15396637.699 -19789305.159 4564032.478 10 0 60088 42300.00000 0 -15731819.333 -19995084.520 1367671.935 10 0 60088 43200.00000 0 -15832770.744 -19867918.923 -1855345.153 10 0 60088 44100.00000 0 -15656289.545 -19443095.156 -5042162.528 10 0 60088 45000.00000 0 -15168700.207 -18765530.016 -8130550.270 10 0 60088 45900.00000 0 -14347512.444 -17887736.596 -11060140.942 10 0 60088 46800.00000 0 -13182617.696 -16867480.438 -13773633.121 10 0 60088 47700.00000 0 -11676969.807 -15765226.066 -16217936.258 10 0 60088 48600.00000 0 -9846718.339 -14641483.960 -18345232.063 10 0 60088 49500.00000 0 -7720786.777 -13554172.537 -20113929.463 10 0 60088 50400.00000 0 -5339912.160 -12556109.127 -21489492.597 10 0 60088 51300.00000 0 -2755186.126 -11692738.107 -22445124.440 10 0 60088 52200.00000 0 -26158.987 -11000193.802 -22962292.023 10 0 60088 53100.00000 0 2781412.705 -10503780.807 -23031082.944 10 0 60088 54000.00000 0 5598079.526 -10216935.903 -22650386.746 10 0 60088 54900.00000 0 8353367.063 -10140714.522 -21827898.694 10 0 60088 55800.00000 0 10978485.707 -10263821.794 -20579947.243 10 0 60088 56700.00000 0 13408968.569 -10563184.646 -18931150.369 10 0 60088 57600.00000 0 15587127.467 -11005038.189 -16913909.246 10 0 60088 58500.00000 0 17464225.208 -11546477.787 -14567751.133 10 0 60088 59400.00000 0 19002275.081 -12137408.703 -11938536.096 10 0 60088 60300.00000 0 20175394.766 -12722808.752 -9077544.697 10 0 60088 61200.00000 0 20970660.970 -13245206.743 -6040465.884 10 0 60088 62100.00000 0 21388432.406 -13647271.086 -2886305.877 10 0 60088 63000.00000 0 21442131.066 -13874399.003 323760.056 10 0 60088 63900.00000 0 21157494.250 -13877197.543 3527570.324 10 0 60088 64800.00000 0 20571331.626 -13613752.807 6663171.502 10 0 60088 65700.00000 0 19729841.623 -13051593.220 9670002.207 10 0 60088 66600.00000 0 18686559.180 -12169265.871 12490044.529 10 0 60088 67500.00000 0 17500021.317 -10957461.220 15068922.427 10 0 60088 68400.00000 0 16231247.950 -9419640.209 17356927.773 10 0 60088 69300.00000 0 14941142.172 -7572138.137 19309956.375 10 0 60088 70200.00000 0 13687916.978 -5443740.867 20890338.109 10 0 60088 71100.00000 0 12524653.786 -3074750.045 22067547.216 10 0 60088 72000.00000 0 11497092.563 -515574.482 22818780.806 10 0 60088 72900.00000 0 10641743.783 2175096.293 23129395.674 10 0 60088 73800.00000 0 9984399.535 4932463.651 22993195.667 10 0 60088 74700.00000 0 9539105.128 7688049.936 22412563.951 10 0 60088 75600.00000 0 9307634.133 10372289.698 21398436.852 10 0 60088 76500.00000 0 9279489.650 12917177.806 19970118.211 10 0 60088 77400.00000 0 9432433.304 15258867.069 18154935.743 10 0 60088 78300.00000 0 9733521.935 17340109.255 15987743.496 10 0 60088 79200.00000 0 10140610.824 19112438.808 13510277.260 10 0 60088 80100.00000 0 10604262.654 20538008.043 10770372.725 10 0 60088 81000.00000 0 11069983.718 21590996.202 7821059.101 10 0 60088 81900.00000 0 11480694.382 22258531.651 4719543.869 10 0 60088 82800.00000 0 11779329.816 22541086.363 1526107.184 10 0 60088 83700.00000 0 11911460.419 22452323.837 -1697073.009 10 0 60088 84600.00000 0 11827819.383 22018404.802 -4887141.900 10 0 60088 85500.00000 0 11486627.877 21276778.374 -7981809.795 10 0 60089 0.00000 0 10855616.306 20274508.984 -10920588.898 10 0 60089 900.00000 0 9913652.199 19066209.117 -13646000.063 10 0 60089 1800.00000 0 8651903.226 17711667.456 -16104719.541 10 0 60089 2700.00000 0 7074481.972 16273272.418 -18248646.113 10 0 60089 3600.00000 0 5198543.370 14813343.247 -20035861.530 10 0 60089 4500.00000 0 3053828.650 13391483.190 -21431465.227 10 0 60089 5400.00000 0 681674.087 12062068.690 -22408265.443 10 0 60089 6300.00000 0 -1866473.899 10871982.297 -22947312.534 10 0 60089 7200.00000 0 -4530974.409 9858685.991 -23038263.980 10 0 60089 8100.00000 0 -7246257.100 9048716.406 -22679574.489 10 0 60089 9000.00000 0 -9943340.540 8456664.725 -21878508.493 10 0 60089 9900.00000 0 -12552497.223 8084682.740 -20650976.227 10 0 60089 10800.00000 0 -15005952.958 7922533.646 -19021198.291 10 0 60089 11700.00000 0 -17240507.404 7948182.646 -17021207.116 10 0 60089 12600.00000 0 -19199966.506 8128899.400 -14690196.967 10 0 60089 13500.00000 0 -20837286.216 8422822.729 -12073737.007 10 0 60089 14400.00000 0 -22116339.639 8780918.728 -9222864.431 10 0 60089 15300.00000 0 -23013236.125 9149247.267 -6193076.797 10 0 60089 16200.00000 0 -23517140.020 9471439.518 -3043244.279 10 0 60089 17100.00000 0 -23630557.993 9691280.946 165536.307 10 0 60089 18000.00000 0 -23369086.092 9755290.573 3371123.096 10 0 60089 18900.00000 0 -22760630.074 9615188.222 6511523.688 10 0 60089 19800.00000 0 -21844134.087 9230146.840 9526080.100 10 0 60089 20700.00000 0 -20667872.678 8568736.465 12356622.357 10 0 60089 21600.00000 0 -19287378.495 7610479.637 14948569.993 10 0 60089 22500.00000 0 -17763092.349 6346954.295 17251962.124 10 0 60089 23400.00000 0 -16157833.003 4782398.842 19222398.296 10 0 60089 24300.00000 0 -14534190.759 2933794.342 20821874.189 10 0 60089 25200.00000 0 -12951951.514 830419.852 22019498.099 10 0 60089 26100.00000 0 -11465656.341 -1487101.953 22792076.172 10 0 60089 27000.00000 0 -10122396.010 -3968231.378 23124556.371 10 0 60089 27900.00000 0 -8959930.340 -6554354.143 23010323.332 10 0 60089 28800.00000 0 -8005209.327 -9180966.495 22451338.331 10 0 60089 29700.00000 0 -7273357.016 -11780115.819 21458120.921 10 0 60089 30600.00000 0 -6767160.616 -14282998.866 20049571.084 10 0 60089 31500.00000 0 -6477087.086 -16622612.576 18252633.233 10 0 60089 32400.00000 0 -6381828.093 -18736349.555 16101806.058 10 0 60089 33300.00000 0 -6449352.412 -20568431.448 13638504.915 10 0 60089 34200.00000 0 -6638423.791 -22072079.052 10910286.427 10 0 60089 35100.00000 0 -6900522.303 -23211327.792 7969947.861 10 0 60089 36000.00000 0 -7182089.739 -23962411.072 4874516.805 10 0 60089 36900.00000 0 -7427004.942 -24314651.282 1684149.532 10 0 60089 37800.00000 0 -7579184.259 -24270818.558 -1539041.003 10 0 60089 38700.00000 0 -7585195.916 -23846939.745 -4732204.401 10 0 60089 39600.00000 0 -7396775.454 -23071563.501 -7832994.358 10 0 60089 40500.00000 0 -6973132.883 -21984511.042 -10780806.549 10 0 60089 41400.00000 0 -6282950.450 -20635164.583 -13517986.470 10 0 60089 42300.00000 0 -5305982.960 -19080365.902 -15990981.147 10 0 60089 43200.00000 0 -4034189.591 -17382014.737 -18151409.754 10 0 60089 44100.00000 0 -2472346.461 -15604469.993 -19957029.963 10 0 60089 45000.00000 0 -638111.870 -13811865.423 -21372579.250 10 0 60089 45900.00000 0 1438459.936 -12065455.016 -22370473.398 10 0 60089 46800.00000 0 3715936.628 -10421101.797 -22931347.835 10 0 60089 47700.00000 0 6143014.289 -8927017.093 -23044431.112 10 0 60089 48600.00000 0 8660448.519 -7621845.968 -22707743.709 10 0 60089 49500.00000 0 11203328.038 -6533179.056 -21928119.303 10 0 60089 50400.00000 0 13703594.204 -5676552.173 -20721049.454 10 0 60089 51300.00000 0 16092699.822 -5054973.677 -19110356.457 10 0 60089 52200.00000 0 18304295.202 -4658996.713 -17127702.580 10 0 60089 53100.00000 0 20276828.827 -4467330.057 -14811947.194 10 0 60089 54000.00000 0 21955954.259 -4447958.402 -12208366.177 10 0 60089 54900.00000 0 23296643.771 -4559721.554 -9367750.507 10 0 60089 55800.00000 0 24264922.043 -4754282.937 -6345403.080 10 0 60089 56700.00000 0 24839149.781 -4978402.023 -3200054.410 10 0 60089 57600.00000 0 25010806.314 -5176413.098 7280.977 10 0 60089 58500.00000 0 24784741.345 -5292804.945 3214484.882 10 0 60089 59400.00000 0 24178888.163 -5274792.560 6359529.799 10 0 60089 60300.00000 0 23223452.836 -5074773.137 9381664.830 10 0 60089 61200.00000 0 21959615.215 -4652563.998 12222571.300 10 0 60089 62100.00000 0 20437797.253 -3977329.774 14827467.286 10 0 60089 63000.00000 0 18715571.275 -3029119.291 17146141.664 10 0 60089 63900.00000 0 16855295.009 -1799948.866 19133899.770 10 0 60089 64800.00000 0 14921570.621 -294387.321 20752404.654 10 0 60089 65700.00000 0 12978631.685 1470381.861 21970399.778 10 0 60089 66600.00000 0 11087764.480 3465024.686 22764300.980 10 0 60089 67500.00000 0 9304868.440 5649029.578 23118647.614 10 0 60089 68400.00000 0 7678254.827 7972151.116 23026404.894 10 0 60089 69300.00000 0 6246773.322 10376267.699 22489111.572 10 0 60089 70200.00000 0 5038343.153 12797579.395 21516869.400 10 0 60089 71100.00000 0 4068949.403 15169058.166 20128173.088 10 0 60089 72000.00000 0 3342146.624 17423051.798 18349581.995 10 0 60089 72900.00000 0 2849091.454 19493935.773 16215237.401 10 0 60089 73800.00000 0 2569104.421 21320704.400 13766231.928 10 0 60089 74700.00000 0 2470739.257 22849393.819 11049840.608 10 0 60089 75600.00000 0 2513316.657 24035235.306 8118626.063 10 0 60089 76500.00000 0 2648859.509 24844447.485 5029433.144 10 0 60089 77400.00000 0 2824348.980 25255590.173 1842291.299 10 0 60089 78300.00000 0 2984206.361 25260420.440 -1380754.495 10 0 60089 79200.00000 0 3072894.962 24864212.115 -4576861.209 10 0 60089 80100.00000 0 3037530.284 24085522.703 -7683628.781 10 0 60089 81000.00000 0 2830385.413 22955415.456 -10640338.766 10 0 60089 81900.00000 0 2411182.446 21516168.037 -13389164.253 10 0 60089 82800.00000 0 1749069.483 19819521.729 -15876324.904 10 0 60089 83700.00000 0 824196.119 17924545.414 -18053162.118 10 0 60089 84600.00000 0 -371182.329 15895205.440 -19877111.024 10 0 60089 85500.00000 0 -1832121.031 13797745.506 -21312548.378 10 0 60090 0.00000 0 -3540948.561 11697988.948 -22331498.404 10 0 60090 900.00000 0 -5467780.029 9658677.704 -22914182.470 10 0 60090 1800.00000 0 -7571556.641 7736964.178 -23049400.451 10 0 60090 2700.00000 0 -9801570.491 5982158.497 -22734738.625 10 0 60090 3600.00000 0 -12099407.294 4433828.652 -21976599.549 10 0 60090 4500.00000 0 -14401225.082 3120331.328 -20790055.339 10 0 60090 5400.00000 0 -16640271.818 2057833.504 -19198528.799 10 0 60090 6300.00000 0 -18749535.337 1249863.328 -17233310.471 10 0 60090 7200.00000 0 -20664413.830 687405.948 -14932922.949 10 0 60090 8100.00000 0 -22325294.936 349536.656 -12342346.711 10 0 60090 9000.00000 0 -23679935.945 204561.072 -9512124.242 10 0 60090 9900.00000 0 -24685546.633 211610.862 -6497361.406 10 0 60090 10800.00000 0 -25310489.314 322624.770 -3356646.648 10 0 60090 11700.00000 0 -25535527.242 484629.099 -150909.772 10 0 60090 12600.00000 0 -25354571.635 642219.981 3057757.129 10 0 60090 13500.00000 0 -24774898.726 740142.054 6207293.898 10 0 60090 14400.00000 0 -23816830.176 725855.015 9236859.182 10 0 60090 15300.00000 0 -22512892.240 551980.691 12087988.046 10 0 60090 16200.00000 0 -20906490.202 178528.940 14705699.501 10 0 60090 17100.00000 0 -19050153.965 -425189.722 17039534.454 10 0 60090 18000.00000 0 -17003427.726 -1279043.680 19044506.124 10 0 60090 18900.00000 0 -14830490.560 -2391014.628 20681946.795 10 0 60090 19800.00000 0 -12597605.079 -3756631.016 21920236.656 10 0 60090 20700.00000 0 -10370497.963 -5358924.533 22735402.479 10 0 60090 21600.00000 0 -8211778.541 -7168912.661 23111575.911 10 0 60090 22500.00000 0 -6178500.032 -9146589.248 23041303.318 10 0 60090 23400.00000 0 -4319962.388 -11242384.604 22525701.190 10 0 60090 24300.00000 0 -2675846.206 -13399037.627 21574453.439 10 0 60090 25200.00000 0 -1274754.166 -15553805.542 20205649.190 10 0 60090 26100.00000 0 -133220.397 -17640922.600 18445462.163 10 0 60090 27000.00000 0 744770.485 -19594208.212 16327675.363 10 0 60090 27900.00000 0 1367733.473 -21349717.950 13893057.522 10 0 60090 28800.00000 0 1756102.910 -22848327.886 11188600.647 10 0 60090 29700.00000 0 1941144.427 -24038144.340 8266631.001 10 0 60090 30600.00000 0 1963403.221 -24876637.202 5183808.722 10 0 60090 31500.00000 0 1870752.742 -25332405.431 2000034.218 10 0 60090 32400.00000 0 1716125.598 -25386498.044 -1222717.940 10 0 60090 33300.00000 0 1555022.830 -25033232.085 -4421614.726 10 0 60090 34200.00000 0 1442908.111 -24280470.172 -7534205.124 10 0 60090 35100.00000 0 1432599.246 -23149343.303 -10499659.538 10 0 60090 36000.00000 0 1571770.189 -21673428.568 -13259981.719 10 0 60090 36900.00000 0 1900672.565 -19897415.244 -15761167.087 10 0 60090 37800.00000 0 2450176.514 -17875315.130 -17954282.340 10 0 60090 38700.00000 0 3240216.929 -15668293.052 -19796442.975 10 0 60090 39600.00000 0 4278713.529 -13342210.085 -21251667.686 10 0 60090 40500.00000 0 5561012.417 -10964984.463 -22291591.569 10 0 60090 41400.00000 0 7069874.021 -8603882.894 -22896023.410 10 0 60090 42300.00000 0 8776008.325 -6322857.631 -23053336.000 10 0 60090 43200.00000 0 10639134.595 -4180042.222 -22760682.295 10 0 60090 44100.00000 0 12609520.090 -2225511.340 -22024034.119 10 0 60090 45000.00000 0 14629931.773 -499398.243 -20858044.061 10 0 60090 45900.00000 0 16637917.528 969552.585 -19285734.893 10 0 60090 46800.00000 0 18568319.761 2164939.184 -17338024.427 10 0 60090 47700.00000 0 20355914.696 3083125.201 -15053097.015 10 0 60090 48600.00000 0 21938066.073 3733118.098 -12475635.784 10 0 60090 49500.00000 0 23257281.864 4135911.392 -9655932.313 10 0 60090 50400.00000 0 24263567.407 4323322.382 -6648892.588 10 0 60090 51300.00000 0 24916477.552 4336377.716 -3512959.757 10 0 60090 52200.00000 0 25186783.600 4223317.719 -308975.411 10 0 60090 53100.00000 0 25057687.341 4037305.705 2900998.114 10 0 60090 54000.00000 0 24525533.730 3833940.097 6054871.677 10 0 60090 54900.00000 0 23599994.648 3668674.597 9091717.037 10 0 60090 55800.00000 0 22303718.071 3594254.694 11952926.356 10 0 60090 56700.00000 0 20671458.772 3658277.370 14583322.643 10 0 60090 57600.00000 0 18748727.597 3900975.201 16932201.566 10 0 60090 58500.00000 0 16590015.589 4353316.362 18954286.586 10 0 60090 59400.00000 0 14256666.038 5035498.867 20610581.189 10 0 60090 60300.00000 0 11814481.259 5955901.145 21869103.880 10 0 60090 61200.00000 0 9331161.301 7110532.636 22705493.548 10 0 60090 62100.00000 0 6873678.220 8483007.855 23103474.908 10 0 60090 63000.00000 0 4505692.003 10045046.497 23055175.816 10 0 60090 63900.00000 0 2285112.711 11757480.906 22561290.392 10 0 60090 64800.00000 0 261907.710 13571731.847 21631084.143 10 0 60090 65700.00000 0 -1523756.620 15431694.328 20282239.584 10 0 60090 66600.00000 0 -3042962.298 17275958.230 18540543.342 10 0 60090 67500.00000 0 -4279016.091 19040274.175 16439418.303 10 0 60090 68400.00000 0 -5227913.431 20660164.237 14019307.131 10 0 60090 69300.00000 0 -5898269.166 22073569.939 11326916.363 10 0 60090 70200.00000 0 -6310716.476 23223427.347 8414333.239 10 0 60090 71100.00000 0 -6496797.447 24060060.803 5338030.351 10 0 60090 72000.00000 0 -6497390.549 24543293.281 2157776.121 10 0 60090 72900.00000 0 -6360740.370 24644182.265 -1064528.316 10 0 60090 73800.00000 0 -6140172.593 24346305.156 -4266062.965 10 0 60090 74700.00000 0 -5891591.508 23646536.871 -7384328.856 10 0 60090 75600.00000 0 -5670867.491 22555283.802 -10358388.101 10 0 60090 76500.00000 0 -5531227.391 21096161.663 -13130077.798 10 0 60090 77400.00000 0 -5520761.203 19305128.892 -15645171.553 10 0 60090 78300.00000 0 -5680153.766 17229111.089 -17854463.517 10 0 60090 79200.00000 0 -6040740.633 14924174.228 -19714751.408 10 0 60090 80100.00000 0 -6622973.175 12453324.165 -21189697.408 10 0 60090 81000.00000 0 -7435360.046 9884026.192 -22250548.644 10 0 60090 81900.00000 0 -8473931.214 7285550.361 -22876702.423 10 0 60090 82800.00000 0 -9722247.861 4726255.607 -23056104.908 10 0 60090 83700.00000 0 -11151957.619 2270927.848 -22785475.913 10 0 60090 84600.00000 0 -12723870.939 -21715.661 -22070356.306 10 0 60090 85500.00000 0 -14389511.939 -2101251.165 -20924978.479 99